Upstream stations:
SHEF ID: HEAO2 North Fork Red River near Headri
STATION TYPE:
Regulating: Stage = 11.00, Flow = 2124
PRECIP STAGE RIV-FLOW BAT-LOAD
in ft cfs volt
Ccp-Rev Ccp-Rev Ccp-Rev Ccp-Rev
(US/Central)
07/02 00:00 0.00 5.58 10 12.57
07/02 01:00 0.00 5.58 10 12.57
07/02 02:00 0.00 5.59 10 12.49
07/02 03:00 0.00 5.59 10 12.49
07/02 04:00 0.00 5.59 10 12.49
07/02 05:00 0.00 5.59 10 12.49
07/02 06:00 0.00 5.59 10 12.41
07/02 07:00 0.00 5.60 11 12.41
07/02 08:00 0.00 5.59 10 12.41
07/02 09:00 0.00 5.60 11 12.57
07/02 10:00 0.00 5.57 10 13.05
07/02 11:00 0.00 5.59 10 13.44
07/02 12:00 0.00 5.59 10 13.44
07/02 13:00 0.00 5.60 11 13.21
07/02 14:00 0.00 5.58 10 13.13
07/02 15:00 0.00 5.57 10 13.05
07/02 16:00 0.00 5.59 10 13.05
07/02 17:00 0.00 5.59 10 12.97
07/02 18:00 0.00 5.57 10 12.89
07/02 19:00 0.00 5.56 9 12.81
07/02 20:00 0.00 5.57 10 12.81
07/02 21:00 0.00 5.57 10 12.65
07/02 22:00 0.00 5.57 10 12.57
07/02 23:00 0.00 5.57 10 12.57